This demonstration page uses our WeatherBlox Daily Observations layout. Learn more.

Left ArrowRight Arrow

38.80484, -77.04692

Hourly Observations for May 4, 2019

Temp ( °F °C ) Dew Point ( °F °C ) Humidity (%) Winds ( mph kmh ) Pressure ( in mb ) Visibility ( mi km ) Precip ( " mm )
12:52 am 00:52 Mostly Cloudy 68 20 61 16.1 78 78 NE 6 9 29.91 1013 10 16 N/A
1:52 am 01:52 Cloudy with Light Rain 68 20 62 16.7 81 81 ENE 8 13 29.88 1012 10 16 N/A
2:52 am 02:52 Mostly Cloudy 67 19.4 61 16.1 81 81 ENE 3 6 29.87 1012 9 14 N/A
3:52 am 03:52 Mostly Cloudy with Mist and Fog 66 18.9 62 16.7 87 87 ENE 3 6 29.86 1011 6 10 N/A
4:52 am 04:52 Mostly Cloudy 66 18.9 61 16.1 84 84 ENE 6 9 29.85 1011 7 11 N/A
5:52 am 05:52 Mostly Cloudy with Mist and Fog 65 18.3 62 16.7 90 90 ENE 7 11 29.84 1011 6 10 N/A
6:02 am 06:02 Cloudy with Mist and Fog 65 18.3 61 16.1 87 87 NE 7 11 29.85 1011 4 6 N/A
6:04 am 06:04 Cloudy with Mist and Fog 65 18.3 62 16.7 90 90 NE 7 11 29.85 1011 4 6 N/A
6:13 am 06:13 Mostly Cloudy with Mist and Fog 65 18.3 61 16.1 87 87 ENE 8 13 29.85 1011 5 8 N/A
6:38 am 06:38 Cloudy with Light Rain 65 18.3 62 16.7 90 90 NNE 7 11 29.86 1011 5 8 N/A
6:52 am 06:52 Cloudy with Mist and Fog 66 18.9 62 16.7 87 87 NNE 6 9 29.86 1011 6 10 N/A
7:52 am 07:52 Cloudy with Haze 67 19.4 62 16.7 84 84 NE 7 11 29.87 1011 5 8 N/A
7:59 am 07:59 Cloudy with Mist and Fog 66 18.9 62 16.7 87 87 NNE 6 9 29.87 1011 5 8 N/A
8:52 am 08:52 Cloudy with Haze 67 19.4 62 16.7 84 84 NNE 5 7 29.88 1012 4 6 N/A
9:04 am 09:04 Cloudy with Haze 68 20 62 16.7 81 81 NE 3 6 29.88 1012 4 6 N/A
9:52 am 09:52 Cloudy with Haze 68 20 62 16.7 81 81 ENE 3 6 29.88 1012 4 6 N/A
10:17 am 10:17 Cloudy with Haze 69 20.6 63 17.2 81 81 NE 3 6 29.88 1012 5 8 N/A
10:52 am 10:52 Cloudy with Haze 69 20.6 63 17.2 81 81 ENE 5 7 29.88 1012 5 8 N/A
11:52 am 11:52 Cloudy with Haze 71 21.7 63 17.2 76 76 N 7 11 29.87 1012 6 10 N/A
12:20 pm 12:20 Cloudy 72 22.2 64 17.8 76 76 NW 9 15 29.88 1012 7 11 N/A
12:52 pm 12:52 Cloudy 72 22.2 63 17.2 73 73 N 6 9 29.86 1011 8 13 N/A
1:52 pm 13:52 Cloudy 74 23.3 63 17.2 69 69 N 5 7 29.85 1011 10 16 N/A
2:30 pm 14:30 Cloudy 74 23.3 64 17.8 71 71 E 3 6 29.84 1010 8 13 N/A
2:52 pm 14:52 Mostly Cloudy 76 24.4 64 17.8 67 67 ENE 3 6 29.83 1010 10 16 N/A
3:52 pm 15:52 Mostly Cloudy 75 23.9 64 17.8 69 69 NNE 3 6 29.81 1010 10 16 N/A
4:52 pm 16:52 Cloudy 75 23.9 63 17.2 66 66 E 5 7 29.80 1009 10 16 N/A
5:52 pm 17:52 Cloudy 75 23.9 63 17.2 66 66 N N/A 29.78 1009 10 16 N/A
6:52 pm 18:52 Cloudy 74 23.3 63 17.2 69 69 S 3 6 29.79 1009 10 16 N/A
7:52 pm 19:52 Cloudy with Light Rain 73 22.8 65 18.3 76 76 ESE 3 6 29.77 1008 10 16 N/A
8:52 pm 20:52 Cloudy 72 22.2 65 18.3 79 79 ENE 5 7 29.78 1009 10 16 N/A
9:52 pm 21:52 Cloudy with Light Rain 71 21.7 65 18.3 81 81 ENE 5 7 29.80 1009 10 16 N/A
10:52 pm 22:52 Cloudy with Light Rain 70 21.1 64 17.8 82 82 NE 6 9 29.80 1009 9 14 N/A
11:27 pm 23:27 Cloudy with Strong Thunderstorms 69 20.6 64 17.8 84 84 NNE 6 9 29.80 1009 4 6 0.05 1.27
11:52 pm 23:52 Cloudy with Strong Thunderstorms 69 20.6 65 18.3 87 87 W 8 13 29.81 1010 4 6 0.10 2.54
11:56 pm 23:56 Cloudy with Strong Thunderstorms 69 20.6 65 18.3 87 87 VRB 3 6 29.80 1009 2 2 0.04 1.02

Powered by AerisWeather